Погода Рудная Пристань

Погода Рудная Пристань : погода сейчас, прогноз погоды и архив. Всё, что Вы хотите узнать о погоде Рудная Пристань!

Хотите узнать прогноз погоды Рудная Пристань? Тогда Вам сюда: Погода Рудная Пристань

Поиск расширенной информации на нашем сайте:

Другие новости

Новости СМИ2

Главная страница сайта

Новости сайта

02.10.2013

Напоминаем, что на нашем новом сайте вы можете получить высокодетализированные прогнозы погоды по пунктам России, СНГ и мира (включающие важные для авиации метеовеличины, такие как направление и скорость ветра, видимость, явления погоды, количество и форма облачности, нижняя и верхняя граница облачности), а также ознакомиться с разнообразными материалами по авиационной метеорологии и подборкой полезных ссылок на эту тему.

Сайт Метеоцентр.Азия посвящён разработке технологий оптимизации авиаметеорологического обслуживания, включая проектирование и перспективное создание нескольких автоматизированных авиаметеорологических систем:
- система выпуска высокодетальных прогностических карт явлений погоды для нижнего воздушного пространства по России и ближнему зарубежью;
- система верификации прогнозов TAF (выпускаемых синоптиками официальных АМСГ РФ и ближнего зарубежья) и AUTOTAF (выпускаемых сайтом Метеоцентр.Азия) - выявление ошибок, онлайн-сопоставление с фактической погодой METAR, автоматическое внесение коррективов в прогнозы при резком отклонении фактической погоды от прогноза, подсчёт оправдываемости прогнозов по элементам и в целом;
- система обработки, анализа и отображения авиаметеорологической информации для применения провайдерами метеорологической информации.


Погода Рудная Пристань - сегодня

Время (UTC), дата Ветер
(°,м/с) 
Видим.   Явления Облачность Т
(°С)
Тd
(°С)
f(%) Тe
(°С)
Pmin
(гПа)
dP
(гПа)
Po
(мм)
O2
(г/м3)
Тmin Tmax R s Состояние
почвы
21 24.05.17 110 (В) 20000 м    9/8 300 м верхняя 
[St|Ci sp]
+4.1 +3.6 97 +5  1011.9  756  299  +2.6    0.0    влажная 
00 25.05.17 120 (ЮВ) 4000 м  дымка  10/8 600 м верхняя 
[Sc|Ci sp]
+5.5 +5 97 +5  1013.2  1.2  757  298           
03 25.05.17 120 (ЮВ) 20000 м    10/8 600 м средняя, верхняя 
[Sc|Ac lent|Ci fib]
+8.9 +6.1 83 +9  1012.6  -0.6  756  294           
06 25.05.17 120 (ЮВ) 20000 м    10/6 600 м средняя, верхняя 
[Sc|Ac lent|Ci fib]
+7.6 +6.3 91 +9  1012  -0.6  756  295           
09 25.05.17 090 (В) 20000 м    10/10 600 м 
[Sc]
+6.3 +5.4 94 +6  1012.3  0.3  756  297    +9.4       
12 25.05.17 270 (З) 20000 м    6/4 600 м средняя 
[Sc|Ac trans]
+4.9 +4.3 96 +6  1013.1  0.8  757  299           
15 25.05.17 270 (З) 4000 м  дымка  3/0 средняя 
[Ac trans]
+2.7 +2.2 96 +2  1013.7  0.5  757  302           
18 25.05.17 100 (В) 4000 м  дымка  ясно 
+2.4 +2 97 +3  1012.7  -1  756  302           
21 25.05.17 240 (ЮЗ) 20000 м    8/3 600 м средняя, верхняя 
[Sc|Ac trans|Ci sp]
+3 +2.7 98 +4  1012.5  -0.2  756  301  +1.2        влажная 
00 26.05.17 070 (В) 20000 м    4/3 300 м средняя 
[Sc|Ac lent]
+9.8 +5.8 76 +9  1011.8  -0.5  756  293           
03 26.05.17 090 (В) 4{13}  20000 м    8/8 300 м 
[Sc]
+8.2 +5.3 82 +7  1011.9  0.1  756  295           
06 26.05.17 090 (В) 3{14}  20000 м    8/4 300 м верхняя 
[Sc|Ci]
+9.6 +5.6 76 +9  1010.7  -1.2  755  293           
09 26.05.17 080 (В) 4{10}  20000 м    9/3 600 м верхняя 
[Sc|Ci]
+9.4 +4.7 72 +8  1010.6  -0.1  755  293    +12.3       
12 26.05.17 240 (ЮЗ) 20000 м    8/3 600 м средняя, верхняя 
[Sc|Ac lent|Ci sp]
+5.5 +4.6 94 +6  1011  0.3  755  298           
15 26.05.17 тихо ()   20000 м    ясно 
+4.7 +4.1 96 +5  1010.6  -0.4  755  298           
18 26.05.17 280 (З) 20000 м    3/0 средняя, верхняя 
[Ac lent|Ci fib]
+4.5 +4.1 97 +5  1009.9  -0.7  754  298           
00 27.05.17 130 (ЮВ) 20000 м    9/4 600 м средняя, верхняя 
[Sc|Ac trans|Ci sp]
+10.7 +3.6 61 +12  1010.1  755  292           
03 27.05.17 080 (В) 4{12}  20000 м    10/6 600 м кучево-дожд., средняя 
[Cb cap|As trans]
+10.1 +4.6 69 +9  1010.8  0.7  755  293           
06 27.05.17 150 (ЮВ) 20000 м  в посл. час ливневой дождь  10/8 600 м кучево-дожд., средняя 
[Cb cap|As op]
+9.6 +5.7 77 +11  1010.3  -0.5  755  293           
12 27.05.17 230 (ЮЗ) 20000 м  {ливн. осадки}  8/6 600 м верхняя 
[Sc diur, vesp|Ci]
+7 +4.7 85 +8  1009.5  -0.4  754  295           
15 27.05.17 350 (С) 20000 м    6/0 верхняя 
[Ci]
+5 +4.4 96 +6  1009.1  -0.4  754  298           
18 27.05.17 270 (З) 20000 м    4/0 верхняя 
[Ci fib]
+4.3 +3.8 97 +5  1008.6  -0.5  753  298           
00 28.05.17 080 (В) 20000 м    8/0 верхняя 
[Ci sp]
+7.8 +5.5 85 +8  1008.4  -0.1  753  294           
03 28.05.17 080 (В) 20000 м    3/0 верхняя 
[Ci sp]
+11.8 +6.3 69 +12  1007.5  -0.9  753  290           
06 28.05.17 090 (В) 20000 м    1/0 верхняя 
[Ci sp]
+12 +6 67 +12  1004.9  -2.6  751  289           
Время (UTC), дата Ветер
(°,м/с) 
Видим.   Явления Облачность Т
(°С)
Тd
(°С)
f(%) Тe
(°С)
Pmin
(гПа)
dP
(гПа)
Po
(мм)
O2
(г/м3)
Тmin Tmax R s Состояние
почвы

Для получения пояснительной информации подведите курсор к названию столбца.

ПОГОДА Рудная Пристань - архив

Всё, что Вы хотите узнать о погоде Рудная Пристань - удобно и подробно!

Выберите нужную дату (начиная с 1 января 2015* года) и нажмите кнопку "Найти".
Будут отображены архивные сводки погоды по пункту Рудная Пристань, начиная с указанной даты.


Отображать данные в формате CSV (для использования в таблицах Excel)


Внимание! Наш архив погоды предназначен исключительно для личного некоммерческого использования в познавательных целях. Если Вам необходимы официальные справки о состоянии погоды (для производственных, юридических, коммерческих и т.п. целей), обращайтесь в органы Росгидромета.

*Примечание: данная дата относится к архиву по метеостанциям СССР (Россия, СНГ, Балтия).
Архив по метеостанциям Зарубежной Европы и Азии (кроме Китая) хранится 10 дней, по другим регионам земного шара (Китай, Африка, Америка, Австралия, Океания) - 1 день.

Рудная Пристань - район местоположения метеостанции


Название, широта, долгота, высота метеостанции:
Рудная Пристань 44.4°ш. 135.9°д. 34 м над ур. моря [Российская Федерация]

Дополнительная информация

В oтличие oт бoльшинства пoгoдных сайтoв мы публикуем пoдрoбную метеoинфoрмацию в детальнoм прoфессиoнальнoм фoрмате.

Характеристики температуры и влажнoсти вoздуха измеряются на высoте 2 м в тени вдали oт зданий и деревьев.
Скoрoсть ветра измеряется на высoте 10 м (на урoвне рoста челoвека скoрoсть ветра ниже в 1.5-2 раза). Если метеoстанция нахoдится в гoрoде или в лесу, тo скoрoсть ветра занижена на 2-4 м/с пo сравнению с oткрытым местoм. Скoрoсть ветра над акватoриями крупных рек и oзёр, а также на вершинах хoлмoв на 2-5 м/с выше, чем в oбычных услoвиях.
Атмoсфернoе давление в разных тoчках местнoсти мoжет значительнo oтличаться oт давления на метеoстанции, в зависимoсти oт услoвий рельефа (при пoдъёме на 10 м давление пoнижается примернo на 1 мм рт.ст.).